| time (UTC) | temp F | wind direction | speed knots | gust knots | rain 1hr in | rain 24hr in | rain mn in | humidity % | barometer mb |
| 20260510060918 | 61 | 90 | 7.8 | 12.2 | 0.00 | 0.15 | 0.00 | 72 | 1016.1 |
| 20260510055919 | 61 | 113 | 7.0 | 11.3 | 0.00 | 0.15 | 0.00 | 73 | 1016.0 |
| 20260510054918 | 61 | 45 | 7.8 | 11.3 | 0.00 | 0.15 | 0.00 | 73 | 1015.8 |
| 20260510053918 | 61 | 68 | 3.5 | 7.0 | 0.00 | 0.15 | 0.00 | 73 | 1015.9 |
| 20260510052919 | 61 | 23 | 7.0 | 9.6 | 0.00 | 0.15 | 0.00 | 73 | 1015.3 |
| 20260510051939 | 62 | 23 | 11.3 | 18.2 | 0.01 | 0.15 | 0.00 | 74 | 1014.8 |
| 20260510050918 | 62 | 0 | 11.3 | 13.9 | 0.03 | 0.15 | 0.00 | 74 | 1014.9 |
| 20260510045917 | 63 | 0 | 6.1 | 10.4 | 0.09 | 0.15 | 0.15 | 74 | 1014.5 |
| 20260510044941 | 63 | 45 | 9.6 | 13.0 | 0.11 | 0.15 | 0.15 | 73 | 1013.0 |
| 20260510043918 | 64 | 90 | 11.3 | 14.8 | 0.14 | 0.15 | 0.15 | 73 | 1012.4 |
| 20260510042919 | 64 | 23 | 6.1 | 10.4 | 0.14 | 0.15 | 0.15 | 72 | 1014.2 |
| 20260510041937 | 65 | 0 | 7.0 | 9.6 | 0.13 | 0.14 | 0.14 | 71 | 1015.3 |
| 20260510040919 | 65 | 0 | 5.2 | 9.6 | 0.11 | 0.12 | 0.12 | 71 | 1014.9 |
| 20260510035918 | 66 | 315 | 10.4 | 13.0 | 0.05 | 0.06 | 0.06 | 68 | 1015.9 |
| 20260510034938 | 69 | 315 | 11.3 | 14.8 | 0.03 | 0.04 | 0.04 | 64 | 1015.4 |
| 20260510033917 | 75 | 293 | 12.2 | 15.6 | 0.00 | 0.01 | 0.01 | 55 | 1015.1 |
| 20260510032917 | 77 | 315 | 3.5 | 5.2 | 0.00 | 0.01 | 0.01 | 49 | 1012.1 |
| 20260510031920 | 77 | 113 | 3.5 | 6.1 | 0.00 | 0.01 | 0.01 | 46 | 1010.3 |
| 20260510030918 | 77 | 113 | 5.2 | 7.8 | 0.00 | 0.01 | 0.01 | 46 | 1009.7 |
| 20260510025938 | 77 | 113 | 7.8 | 9.6 | 0.00 | 0.01 | 0.01 | 45 | 1009.8 |
| 20260510024920 | 77 | 113 | 10.4 | 14.8 | 0.00 | 0.01 | 0.01 | 45 | 1009.6 |
| 20260510023938 | 77 | 135 | 7.8 | 10.4 | 0.00 | 0.01 | 0.01 | 45 | 1009.9 |
| 20260510022917 | 77 | 135 | 7.0 | 10.4 | 0.00 | 0.01 | 0.01 | 45 | 1010.2 |
| 20260510021917 | 77 | 135 | 8.7 | 13.0 | 0.00 | 0.01 | 0.01 | 45 | 1010.0 |
| 20260510020917 | 77 | 135 | 7.0 | 8.7 | 0.00 | 0.01 | 0.01 | 44 | 1010.0 |
| 20260510015919 | 77 | 135 | 7.0 | 9.6 | 0.00 | 0.01 | 0.01 | 44 | 1009.1 |
| 20260510014917 | 77 | 135 | 7.8 | 11.3 | 0.00 | 0.01 | 0.01 | 44 | 1008.6 |
| 20260510013919 | 77 | 135 | 10.4 | 13.9 | 0.00 | 0.01 | 0.01 | 44 | 1008.3 |
| 20260510012918 | 77 | 135 | 8.7 | 12.2 | 0.00 | 0.01 | 0.01 | 43 | 1008.5 |
| 20260510011919 | 78 | 158 | 5.2 | 7.0 | 0.00 | 0.01 | 0.01 | 41 | 1008.8 |
| 20260510010917 | 78 | 135 | 4.3 | 7.0 | 0.00 | 0.01 | 0.01 | 40 | 1008.6 |
| 20260510005919 | 79 | 135 | 6.1 | 8.7 | 0.00 | 0.01 | 0.01 | 40 | 1008.8 |
| 20260510004917 | 79 | 113 | 4.3 | 7.0 | 0.00 | 0.01 | 0.01 | 40 | 1008.9 |
| 20260510003917 | 80 | 135 | 3.5 | 6.1 | 0.00 | 0.01 | 0.01 | 39 | 1008.9 |
| 20260510002940 | 80 | 135 | 4.3 | 8.7 | 0.00 | 0.01 | 0.01 | 38 | 1009.0 |
| 20260510001918 | 81 | 135 | 6.1 | 9.6 | 0.00 | 0.01 | 0.01 | 38 | 1008.8 |
| 20260510000919 | 81 | 113 | 7.0 | 9.6 | 0.00 | 0.01 | 0.01 | 37 | 1008.7 |
| 20260509235917 | 82 | 135 | 6.1 | 9.6 | 0.00 | 0.01 | 0.01 | 37 | 1008.9 |
| 20260509234919 | 83 | 158 | 7.0 | 12.2 | 0.00 | 0.01 | 0.01 | 36 | 1008.8 |
| 20260509232919 | 85 | 135 | 7.8 | 13.9 | 0.00 | 0.01 | 0.01 | 34 | 1009.0 |
| 20260509231939 | 85 | 135 | 5.2 | 8.7 | 0.00 | 0.01 | 0.01 | 33 | 1009.1 |
| 20260509230919 | 86 | 113 | 8.7 | 12.2 | 0.00 | 0.01 | 0.01 | 31 | 1009.2 |
| 20260509225917 | 86 | 158 | 8.7 | 12.2 | 0.00 | 0.01 | 0.01 | 32 | 1009.3 |
| 20260509224918 | 86 | 90 | 9.6 | 13.0 | 0.00 | 0.01 | 0.01 | 32 | 1009.3 |
| 20260509223917 | 87 | 135 | 5.2 | 7.8 | 0.00 | 0.09 | 0.01 | 32 | 1009.6 |
| 20260509222919 | 87 | 135 | 6.1 | 8.7 | 0.00 | 0.17 | 0.01 | 31 | 1009.8 |
| 20260509221917 | 87 | 135 | 8.7 | 13.0 | 0.00 | 0.17 | 0.01 | 32 | 1009.8 |
| 20260509220919 | 88 | 135 | 8.7 | 9.6 | 0.00 | 0.17 | 0.01 | 30 | 1010.0 |
| 20260509220000 | 88 | 113 | 2.6 | 6.1 | 0.00 | 0.17 | 0.01 | 32 | 1010.0 |
| 20260509214920 | 88 | 158 | 5.2 | 7.8 | 0.00 | 0.17 | 0.01 | 32 | 1009.9 |
| 20260509213917 | 87 | 225 | 2.6 | 7.0 | 0.00 | 0.17 | 0.01 | 30 | 1009.9 |
| 20260509212917 | 87 | 158 | 5.2 | 8.7 | 0.00 | 0.17 | 0.01 | 29 | 1010.1 |
| 20260509211919 | 88 | 180 | 4.3 | 7.0 | 0.00 | 0.17 | 0.01 | 27 | 1010.2 |
| 20260509210917 | 87 | 203 | 3.5 | 6.1 | 0.00 | 0.17 | 0.01 | 28 | 1010.3 |
| 20260509205919 | 87 | 270 | 0.9 | 2.6 | 0.00 | 0.17 | 0.01 | 26 | 1010.5 |
| 20260509204939 | 86 | 0.0 | 0.9 | 0.00 | 0.17 | 0.01 | 27 | 1010.5 | |
| 20260509203919 | 86 | 113 | 6.1 | 7.8 | 0.00 | 0.17 | 0.01 | 32 | 1010.7 |
| 20260509202939 | 87 | 0.0 | 0.9 | 0.00 | 0.17 | 0.01 | 27 | 1010.7 | |
| 20260509201940 | 86 | 113 | 2.6 | 5.2 | 0.00 | 0.17 | 0.01 | 29 | 1010.9 |
| 20260509200919 | 86 | 225 | 1.7 | 7.0 | 0.00 | 0.17 | 0.01 | 30 | 1010.9 |
| 20260509195940 | 86 | 180 | 3.5 | 6.1 | 0.00 | 0.17 | 0.01 | 32 | 1011.1 |
| 20260509194938 | 84 | 0.0 | 0.0 | 0.00 | 0.17 | 0.01 | 31 | 1011.4 | |
| 20260509193919 | 85 | 0.0 | 1.7 | 0.00 | 0.17 | 0.01 | 26 | 1011.5 | |
| 20260509192939 | 85 | 158 | 6.1 | 8.7 | 0.00 | 0.17 | 0.01 | 30 | 1011.5 |
| 20260509191920 | 85 | 90 | 2.6 | 5.2 | 0.00 | 0.17 | 0.01 | 32 | 1011.7 |
| 20260509190920 | 85 | 45 | 0.9 | 3.5 | 0.00 | 0.17 | 0.01 | 33 | 1011.8 |
| 20260509185919 | 85 | 113 | 3.5 | 6.1 | 0.00 | 0.17 | 0.01 | 34 | 1011.9 |
| 20260509184919 | 84 | 0.0 | 0.0 | 0.00 | 0.17 | 0.01 | 36 | 1012.0 | |
| 20260509183937 | 85 | 248 | 1.7 | 5.2 | 0.00 | 0.17 | 0.01 | 35 | 1012.1 |
| 20260509182939 | 84 | 113 | 3.5 | 7.0 | 0.00 | 0.17 | 0.01 | 38 | 1012.3 |
| 20260509181919 | 84 | 135 | 4.3 | 7.8 | 0.00 | 0.17 | 0.01 | 39 | 1012.4 |
| 20260509180919 | 84 | 113 | 4.3 | 7.0 | 0.00 | 0.17 | 0.01 | 40 | 1012.5 |
| 20260509175939 | 83 | 135 | 0.9 | 2.6 | 0.00 | 0.17 | 0.01 | 39 | 1012.7 |
| 20260509174920 | 83 | 90 | 0.9 | 2.6 | 0.00 | 0.17 | 0.01 | 39 | 1012.8 |
| 20260509173919 | 83 | 113 | 1.7 | 2.6 | 0.00 | 0.17 | 0.01 | 42 | 1013.0 |
| 20260509172939 | 82 | 113 | 5.2 | 7.8 | 0.00 | 0.17 | 0.01 | 43 | 1013.1 |
| 20260509171940 | 82 | 113 | 3.5 | 6.1 | 0.00 | 0.17 | 0.01 | 44 | 1013.3 |
| 20260509170919 | 82 | 180 | 2.6 | 9.6 | 0.00 | 0.17 | 0.01 | 43 | 1013.4 |
| 20260509165919 | 82 | 135 | 1.7 | 4.3 | 0.00 | 0.17 | 0.01 | 45 | 1013.4 |
| 20260509164919 | 81 | 180 | 6.1 | 7.8 | 0.00 | 0.17 | 0.01 | 44 | 1013.5 |
| 20260509163919 | 80 | 90 | 0.9 | 2.6 | 0.00 | 0.17 | 0.01 | 43 | 1013.6 |
| 20260509162919 | 79 | 203 | 0.9 | 5.2 | 0.00 | 0.17 | 0.01 | 43 | 1013.3 |
| 20260509161919 | 78 | 203 | 2.6 | 6.1 | 0.00 | 0.17 | 0.01 | 45 | 1013.4 |
| 20260509160919 | 78 | 158 | 5.2 | 7.8 | 0.00 | 0.17 | 0.01 | 48 | 1013.5 |
| 20260509155919 | 77 | 158 | 1.7 | 4.3 | 0.00 | 0.17 | 0.01 | 50 | 1013.4 |
| 20260509154919 | 77 | 158 | 2.6 | 6.1 | 0.00 | 0.17 | 0.01 | 48 | 1013.4 |
| 20260509153919 | 78 | 135 | 0.9 | 1.7 | 0.00 | 0.17 | 0.01 | 50 | 1013.1 |
| 20260509152919 | 76 | 113 | 5.2 | 9.6 | 0.00 | 0.17 | 0.01 | 50 | 1013.2 |
| 20260509151919 | 74 | 113 | 6.1 | 7.0 | 0.00 | 0.17 | 0.01 | 57 | 1013.2 |
| 20260509151000 | 73 | 0.0 | 0.0 | 0.00 | 0.17 | 0.01 | 66 | 1013.2 | |
| 20260509145919 | 71 | 0.0 | 0.0 | 0.00 | 0.17 | 0.01 | 69 | 1013.2 | |
| 20260509144940 | 71 | 0.0 | 0.0 | 0.00 | 0.17 | 0.01 | 69 | 1013.0 | |
| 20260509143920 | 71 | 0.0 | 0.0 | 0.00 | 0.17 | 0.01 | 71 | 1012.9 | |
| 20260509142919 | 70 | 0.0 | 0.0 | 0.00 | 0.17 | 0.01 | 74 | 1012.8 | |
| 20260509141919 | 68 | 0.0 | 0.0 | 0.00 | 0.17 | 0.01 | 80 | 1012.9 | |
| 20260509140940 | 67 | 0.0 | 0.0 | 0.00 | 0.17 | 0.01 | 87 | 1013.0 | |
| 20260509135939 | 65 | 0.0 | 0.0 | 0.00 | 0.17 | 0.01 | 89 | 1012.9 | |
| 20260509134919 | 64 | 0.0 | 0.0 | 0.00 | 0.17 | 0.01 | 89 | 1012.8 | |
| 20260509133919 | 63 | 0.0 | 0.0 | 0.00 | 0.17 | 0.01 | 89 | 1012.7 | |
| 20260509132919 | 62 | 0.0 | 0.0 | 0.00 | 0.17 | 0.01 | 89 | 1012.6 | |
| 20260509131919 | 61 | 0.0 | 0.0 | 0.00 | 0.17 | 0.01 | 89 | 1012.4 | |
| 20260509130939 | 60 | 0.0 | 0.0 | 0.00 | 0.17 | 0.01 | 89 | 1012.2 | |
| 20260509125919 | 59 | 0.0 | 0.0 | 0.00 | 0.17 | 0.01 | 89 | 1012.2 | |
| 20260509124919 | 59 | 0.0 | 0.0 | 0.00 | 0.17 | 0.01 | 89 | 1012.2 | |
| 20260509123919 | 59 | 0.0 | 0.0 | 0.00 | 0.17 | 0.01 | 88 | 1012.2 | |
| 20260509122919 | 58 | 0.0 | 0.0 | 0.00 | 0.17 | 0.01 | 89 | 1011.9 | |
| 20260509121918 | 57 | 0.0 | 0.0 | 0.01 | 0.17 | 0.01 | 88 | 1011.8 | |
| 20260509120918 | 56 | 0.0 | 0.0 | 0.01 | 0.17 | 0.01 | 88 | 1011.7 | |
| 20260509115918 | 55 | 0.0 | 0.0 | 0.01 | 0.17 | 0.01 | 88 | 1011.7 | |
| 20260509114918 | 55 | 0.0 | 0.0 | 0.01 | 0.17 | 0.01 | 87 | 1011.6 | |
| 20260509113919 | 55 | 0.0 | 0.0 | 0.01 | 0.17 | 0.01 | 87 | 1011.6 | |
| 20260509112919 | 55 | 0.0 | 0.0 | 0.01 | 0.17 | 0.01 | 86 | 1011.3 | |
| 20260509111919 | 55 | 0.0 | 0.0 | 0.00 | 0.16 | 0.00 | 86 | 1011.2 | |
| 20260509111000 | 55 | 0.0 | 0.0 | 0.00 | 0.16 | 0.00 | 86 | 1011.0 | |
| 20260509105919 | 56 | 0.0 | 0.0 | 0.00 | 0.16 | 0.00 | 86 | 1010.9 | |
| 20260509104919 | 56 | 0.0 | 0.0 | 0.00 | 0.16 | 0.00 | 86 | 1010.9 | |
| 20260509103939 | 56 | 0.0 | 0.0 | 0.00 | 0.16 | 0.00 | 85 | 1011.1 | |
| 20260509102919 | 56 | 0.0 | 0.0 | 0.00 | 0.16 | 0.00 | 85 | 1011.8 | |
| 20260509101939 | 57 | 0.0 | 0.0 | 0.00 | 0.16 | 0.00 | 85 | 1011.9 | |
| 20260509100918 | 57 | 0.0 | 0.0 | 0.00 | 0.16 | 0.00 | 84 | 1012.0 | |
| 20260509095919 | 57 | 0.0 | 0.0 | 0.00 | 0.16 | 0.00 | 85 | 1012.3 | |
| 20260509094919 | 57 | 0.0 | 0.0 | 0.00 | 0.16 | 0.00 | 85 | 1012.5 | |
| 20260509093919 | 57 | 0.0 | 0.0 | 0.00 | 0.16 | 0.00 | 83 | 1012.6 | |
| 20260509092939 | 57 | 0.0 | 0.0 | 0.00 | 0.16 | 0.00 | 83 | 1012.7 | |
| 20260509091919 | 57 | 0.0 | 0.9 | 0.00 | 0.16 | 0.00 | 83 | 1012.7 | |
| 20260509090918 | 57 | 0.0 | 0.0 | 0.00 | 0.16 | 0.00 | 81 | 1012.4 | |
| 20260509085919 | 57 | 0.0 | 0.0 | 0.00 | 0.16 | 0.00 | 81 | 1012.4 | |
| 20260509084919 | 57 | 0.0 | 0.0 | 0.00 | 0.16 | 0.00 | 80 | 1012.6 | |
| 20260509083919 | 57 | 0.0 | 0.0 | 0.00 | 0.16 | 0.00 | 81 | 1012.4 | |
| 20260509082919 | 57 | 0.0 | 0.0 | 0.00 | 0.16 | 0.00 | 80 | 1012.4 | |
| 20260509081918 | 58 | 0.0 | 0.0 | 0.00 | 0.16 | 0.00 | 80 | 1012.4 | |
| 20260509080918 | 57 | 0.0 | 0.0 | 0.00 | 0.16 | 0.00 | 79 | 1012.4 | |
| 20260509075919 | 58 | 0.0 | 0.0 | 0.00 | 0.16 | 0.00 | 78 | 1012.5 | |
| 20260509074919 | 58 | 0.0 | 0.0 | 0.00 | 0.16 | 0.00 | 78 | 1012.6 | |
| 20260509073919 | 58 | 0.0 | 0.0 | 0.00 | 0.16 | 0.00 | 78 | 1012.6 | |
| 20260509072918 | 58 | 0.0 | 0.0 | 0.00 | 0.16 | 0.00 | 78 | 1012.7 | |
| 20260509071919 | 59 | 0.0 | 0.0 | 0.00 | 0.16 | 0.00 | 78 | 1012.8 | |
| 20260509070918 | 59 | 0.0 | 0.0 | 0.00 | 0.16 | 0.00 | 78 | 1012.9 | |
| 20260509065918 | 59 | 0.0 | 0.0 | 0.00 | 0.16 | 0.00 | 77 | 1012.8 | |
| 20260509064918 | 60 | 0.0 | 0.0 | 0.00 | 0.16 | 0.00 | 78 | 1012.8 | |
| 20260509063959 | 60 | 0.0 | 0.0 | 0.00 | 0.16 | 0.00 | 77 | 1012.9 | |
| 20260509062918 | 60 | 0.0 | 0.9 | 0.00 | 0.16 | 0.00 | 76 | 1012.7 | |
| 20260509061919 | 60 | 0.0 | 0.0 | 0.00 | 0.16 | 0.00 | 76 | 1013.0 |